Regional Weather Roundup
Issued by NWS

Home | Current Version | Previous Version | Graphics & Text | Print | Product List | Glossary On
Versions: 1 2 3 4 5 6 7 8 9 10 11 12 13 14 15 16 17 18 19 20 21 22 23 24 25 26 27 28 29 30 31 32 33 34 35 36 37 38 39 40 41 42 43 44 45 46 47 48 49 50
000
ASUS45 KBOU 031607
RWRCO

WEATHER ROUNDUP FOR COLORADO
NATIONAL WEATHER SERVICE DENVER/BOULDER CO
1000 AM MDT MON AUG 03 2015

NOTE: "FAIR" INDICATES FEW OR NO CLOUDS BELOW 12000 FEET WITH NO
SIGNIFICANT WEATHER AND/OR OBSTRUCTIONS TO VISIBILITY.

COZ001>005-013-030-031-031700-
...NORTHWEST COLORADO...

CITY           SKY/WX    TMP DP  RH WIND       PRES   REMARKS
CRAIG          CLOUDY    63  56  78 CALM      30.20R
HAYDEN         CLOUDY    63  48  59 E3        30.21F
MEEKER         PTSUNNY   67  53  61 E5        30.20S
MOUNT WERNER   NOT AVBL
STEAMBOAT SPGS   N/A     63  51  67 SW3       30.23R
WALDEN         PTSUNNY   61  43  51 CALM      30.30F
$$

COZ006>008-011-031700-
...WEST CENTRAL VALLEYS...

CITY           SKY/WX    TMP DP  RH WIND       PRES   REMARKS
GRAND JUNCTION MOSUNNY   74  57  55 SE12      30.10F
MONTROSE       MOSUNNY   71  56  58 CALM      30.20S
EAGLE          CLOUDY    61  55  82 CALM      30.26F
RIFLE          PTSUNNY   65  60  84 NW3       30.18S
DELTA          MOSUNNY   74  57  55 E8        30.16F
NUCLA          MOSUNNY   68  55  64 CALM      30.25S
$$

COZ017>023-064>068-031700-
...SOUTHWEST COLORADO...

CITY           SKY/WX    TMP DP  RH WIND       PRES   REMARKS
DURANGO        SUNNY     68  54  60 VRB3      30.27R
CORTEZ         SUNNY     69  55  60 SW6       30.22S
PAGOSA SPRINGS PTSUNNY   63  54  71 W3        30.33S
TELLURIDE      PTSUNNY   62  49  62 NE3       30.42R
WOLF CREEK PAS NOT AVBL
$$

COZ009-010-012-014-032>034-037-058>063-031700-
...CENTRAL COLORADO...

CITY           SKY/WX    TMP DP  RH WIND       PRES   REMARKS
ASPEN          CLOUDY    56  53  90 NW6       30.31S
BUENA VISTA    CLOUDY    59  51  75 CALM      30.33S
COPPER MTN     CLOUDY    52  34  50 SE13G20   30.57R
BERTHOUD PASS  PTSUNNY   43  32  65 SE26G32   30.61R
COTTONWOOD PAS CLOUDY    55  45  67 CALM      30.45R
GUNNISON       CLOUDY    57  52  82 CALM      30.35S
KREMMLING      CLOUDY    64  43  45 CALM      30.28S
LEADVILLE        N/A     50  48  93 CALM      30.43F
MONARCH PASS   CLOUDY    45  41  87 S5        30.67R
SALIDA         CLOUDY    64  52  64 N5        30.37F
SUNLIGHT       CLOUDY    48  46  93 SE3       30.51S
WILKERSON PASS CLOUDY    50  34  53 CALM      30.56S
$$

COZ069>075-031700-
...SAN LUIS VALLEY/SANGRE DE CRISTO MOUNTAINS...

CITY           SKY/WX    TMP DP  RH WIND       PRES   REMARKS
ALAMOSA        PTSUNNY   63  51  65 VRB3      30.30S
LA VETA PASS   CLOUDY    48  46  93 MISG      30.44R
SAGUACHE       NOT AVBL
$$

COZ035-036-038>040-031700-
...NORTHERN COLORADO FRONT RANGE...

CITY           SKY/WX    TMP DP  RH WIND       PRES   REMARKS
DENVER INTL AP CLOUDY    78  50  37 VRB5      30.11R
DMNS CITY PARK   N/A     76  53  43 E3        30.11R
AURORA         PTSUNNY   75  53  46 SW5       30.14R
FRONT RANGE AP PTSUNNY   77  52  41 S9        30.12S
ERIE MUNI ARPT CLOUDY    77  51  41 CALM      30.08F
BOULDER MUN AP CLOUDY    73  48  40 CALM      30.10S
CENTENNIAL     CLOUDY    73  52  47 CALM      30.14S
BROOMFIELD     CLOUDY    73  52  46 CALM      30.13S
FORT COLLINS   CLOUDY    73  54  49 E5        30.09S
LONGMONT       CLOUDY    77  52  41 CALM      30.11R
$$

COZ041-046-047-076>085-087-088-031700-
...PIKES PEAK/PALMER DIVIDE AND SOUTHERN FOOTHILLS...

CITY           SKY/WX    TMP DP  RH WIND       PRES   REMARKS
COLO. SPRINGS  CLOUDY    71  51  49 SW6       30.19R
A. F. ACADEMY  CLOUDY    71  51  50 S7        30.20R
ELLICOTT       CLOUDY   N/A N/A N/A S6        30.17R
FALCON         CLOUDY    68  55  62 SE6       30.23S
FORT CARSON    PTSUNNY   73  51  45 VRB1      30.15S
LIMON          CLOUDY    74  59  59 CALM      30.12S
MONUMENT HILL  NOT AVBL
TRINIDAD       CLOUDY    74  51  44 W7        30.14R
$$

COZ042>045-048>051-090-091-031700-
...NORTHEAST COLORADO...

CITY           SKY/WX    TMP DP  RH WIND       PRES   REMARKS
GREELEY ARPT   PTSUNNY   73  55  53 W3        30.08S
AKRON          PTSUNNY   79  61  53 SW5       30.08R
BURLINGTON     PTSUNNY   82  63  52 SE8       30.06S
WRAY           MOSUNNY   82  61  50 E3        30.03F
STERLING       PTSUNNY   81  59  47 SE5       30.03S
HOLYOKE        MOSUNNY   81  63  54 S7        30.04S
FORT MORGAN    PTSUNNY   75  56  50 S3        30.07S
$$

COZ086-089-092>099-031700-
...SOUTHEAST COLORADO...

CITY           SKY/WX    TMP DP  RH WIND       PRES   REMARKS
PUEBLO         CLOUDY    80  54  40 W6        30.07S
LA JUNTA       MOSUNNY   82  55  39 S3        30.03S
LAMAR          MOSUNNY   83  67  58 E9        29.99S
SPRINGFIELD      N/A     84  59  42 S8        30.03F
$$


USA.gov is the U.S. government's official web portal to all federal, state and local government web resources and services.